EA5CH Weather Reports


time (UTC)temp
C
wind
direction
speed
KPH
gust
KPH
rain 1hr
cm
rain 24hr
cm
rain mn
cm
humidity
%
barometer
mb
20260504081518 20 135 3.2 9.7 0.00 0.08 0.08 82 1014.7
20260504080518 20 113 1.6 4.8 0.00 0.08 0.08 83 1014.8
20260504050518 17 0.0 1.6 0.00 0.08 0.08 94 1014.0
20260504045518 17 225 1.6 4.8 0.00 0.08 0.08 94 1013.9
20260504044538 17 0.0 3.2 0.00 0.08 0.08 94 1013.9
20260504043518 17 0.0 0.0 0.00 0.08 0.08 94 1013.9
20260504042518 17 0.0 1.6 0.03 0.08 0.08 94 1013.8
20260504041518 16 0.0 1.6 0.03 0.08 0.08 94 1013.9
20260504040558 16 0.0 1.6 0.05 0.08 0.08 94 1013.9
20260504035518 17 0.0 0.0 0.05 0.08 0.08 94 1014.0
20260504034518 16 0.0 0.0 0.05 0.08 0.08 94 1014.2
20260504033518 16 270 1.6 3.2 0.05 0.08 0.08 94 1014.4
20260504032518 17 293 1.6 4.8 0.03 0.05 0.05 94 1014.4
20260504031518 17 270 1.6 4.8 0.05 0.05 0.05 94 1014.6
20260504030518 17 270 1.6 3.2 0.05 0.05 0.05 93 1014.8
20260504025538 17 270 1.6 3.2 0.05 0.05 0.05 93 1014.8
20260504024518 17 270 1.6 3.2 0.05 0.05 0.05 92 1014.8
20260504023518 17 270 3.2 4.8 0.05 0.05 0.05 92 1014.8
20260504022518 17 0.0 3.2 0.05 0.05 0.05 90 1014.8
20260504021518 17 0.0 1.6 0.00 0.00 0.00 90 1014.8
20260504020518 17 0.0 1.6 0.00 0.00 0.00 89 1014.9
20260504015518 17 0.0 1.6 0.00 0.00 0.00 89 1015.0
20260504014519 17 0.0 1.6 0.00 0.00 0.00 88 1014.9
20260504013518 17 0.0 4.8 0.00 0.00 0.00 88 1014.8
20260504012518 18 113 1.6 8.0 0.00 0.00 0.00 87 1014.8
20260504011538 18 90 1.6 6.4 0.00 0.00 0.00 86 1014.9
20260504010518 18 135 1.6 4.8 0.00 0.00 0.00 82 1014.9
20260504005518 18 90 1.6 8.0 0.00 0.00 0.00 80 1014.9
20260504004518 18 0.0 3.2 0.00 0.00 0.00 79 1014.8
20260504003519 18 0.0 0.0 0.00 0.00 0.00 79 1014.7
20260504002559 18 0.0 0.0 0.00 0.00 0.00 79 1014.7
20260504001518 18 0.0 1.6 0.00 0.00 0.00 79 1014.8
20260504000518 18 0.0 1.6 0.00 0.00 0.00 79 1014.8
20260503235518 18 0.0 1.6 0.00 0.00 0.00 79 1014.9
20260503234518 18 0.0 3.2 0.00 0.00 0.00 80 1015.1
20260503233559 18 0 1.6 6.4 0.00 0.00 0.00 81 1015.1
20260503232538 18 338 1.6 6.4 0.00 0.00 0.00 82 1015.3
20260503231538 18 0 3.2 8.0 0.00 0.00 0.00 84 1015.4
20260503230539 18 23 3.2 8.0 0.00 0.00 0.00 86 1015.4
20260503225518 18 23 1.6 6.4 0.00 0.00 0.00 87 1015.5
20260503224518 18 23 4.8 9.7 0.00 0.00 0.00 87 1015.6
20260503223518 18 45 3.2 6.4 0.00 0.00 0.00 87 1015.6
20260503222519 18 0.0 1.6 0.00 0.00 0.00 87 1015.8
20260503221519 18 0.0 3.2 0.00 0.00 0.00 87 1015.9
20260503220518 18 0.0 1.6 0.00 0.00 0.00 87 1015.9
20260503215538 18 0.0 1.6 0.00 0.00 0.00 87 1016.0
20260503214518 18 0.0 1.6 0.00 0.00 0.00 87 1015.9
20260503213518 18 0.0 3.2 0.00 0.00 0.00 87 1015.9
20260503212518 18 0.0 3.2 0.00 0.00 0.00 87 1016.0
20260503211518 18 68 1.6 3.2 0.00 0.00 0.00 87 1016.1
20260503210518 18 0.0 3.2 0.00 0.00 0.00 87 1016.0
20260503205518 18 68 1.6 4.8 0.00 0.00 0.00 86 1016.0
20260503204518 18 68 1.6 4.8 0.00 0.00 0.00 86 1015.9
20260503203518 18 68 3.2 9.7 0.00 0.00 0.00 86 1015.9
20260503202518 18 113 3.2 9.7 0.00 0.00 0.00 86 1015.7
20260503201519 18 90 1.6 9.7 0.00 0.00 0.00 87 1015.5
20260503200519 18 113 1.6 8.0 0.00 0.00 0.00 87 1015.3
20260503195518 18 113 3.2 9.7 0.00 0.00 0.00 87 1015.2
20260503194519 18 113 3.2 9.7 0.00 0.00 0.00 86 1014.9
20260503193519 18 113 4.8 11.3 0.00 0.00 0.00 86 1014.5
20260503192538 18 113 1.6 8.0 0.00 0.00 0.00 86 1014.4
20260503191518 18 113 4.8 11.3 0.00 0.00 0.00 86 1014.2
20260503190518 18 90 3.2 11.3 0.00 0.00 0.00 86 1014.3
20260503185538 18 45 1.6 11.3 0.00 0.00 0.00 86 1014.2
20260503184518 18 68 1.6 11.3 0.00 0.00 0.00 86 1014.2
20260503183538 18 68 3.2 9.7 0.00 0.00 0.00 87 1014.2
20260503182518 18 90 3.2 11.3 0.00 0.00 0.00 86 1014.0
20260503181518 18 90 3.2 14.5 0.00 0.00 0.00 86 1014.0
20260503180518 18 45 4.8 12.9 0.00 0.00 0.00 86 1013.9
20260503175519 18 113 4.8 16.1 0.00 0.00 0.00 86 1014.1
20260503174518 18 225 1.6 8.0 0.00 0.00 0.00 87 1013.9
20260503173518 18 45 4.8 14.5 0.00 0.00 0.00 86 1013.8
20260503172518 18 68 4.8 17.7 0.00 0.00 0.00 86 1013.8
20260503171519 18 90 6.4 16.1 0.00 0.00 0.00 86 1013.7
20260503170519 19 225 4.8 17.7 0.00 0.00 0.00 85 1013.8
20260503150518 21 68 6.4 16.1 0.00 0.00 0.00 77 1014.2
20260503130519 21 113 6.4 16.1 0.00 0.00 0.00 76 1015.2
20260503110518 21 135 6.4 14.5 0.00 0.00 0.00 76 1016.1